Date,TemperatureHighF,TemperatureAvgF,TemperatureLowF,DewpointHighF,DewpointAvgF,DewpointLowF,HumidityHigh,HumidityAvg,HumidityLow,PressureMaxIn,PressureMinIn,WindSpeedMaxMPH,WindSpeedAvgMPH,GustSpeedMaxMPH,PrecipitationSumIn
2013-2-1,48,36,28,37,32,27,96,84,63,0.00,40.00,6,4,11,0.00
2013-2-2,44,33,25,34,29,23,94,85,64,0.00,40.00,5,4,6,0.00
2013-2-3,49,38,27,38,31,25,93,79,61,0.00,40.00,5,3,6,0.00
2013-2-4,49,40,31,34,31,28,88,72,51,0.00,40.00,5,3,8,0.00
2013-2-5,50,41,35,33,29,25,83,64,40,0.00,40.00,18,9,28,0.00
2013-2-6,47,40,33,30,27,24,79,61,40,0.00,40.00,14,7,20,0.00
2013-2-7,43,36,29,29,26,22,83,70,45,0.00,40.00,8,3,11,0.00
2013-2-8,42,30,20,25,22,18,91,73,42,0.00,40.00,14,5,16,0.00
2013-2-9,46,32,19,30,25,17,90,76,53,0.00,40.00,13,6,19,0.00
2013-2-10,46,34,24,28,24,22,93,70,41,0.00,40.00,6,4,10,0.00
2013-2-11,50,33,20,34,26,17,89,75,52,0.00,40.00,17,6,22,0.00
2013-2-12,52,39,29,33,29,26,91,70,39,0.00,40.00,12,6,18,0.00
2013-2-13,49,40,32,34,32,28,88,71,50,0.00,40.00,11,5,14,0.00
2013-2-14,54,37,26,39,31,25,94,80,51,0.00,40.00,10,4,13,0.00
2013-2-15,54,39,28,38,33,27,97,82,53,0.00,40.00,7,4,9,0.00
2013-2-16,52,38,29,35,30,24,95,72,41,0.00,40.00,12,6,17,0.00
2013-2-17,44,33,27,26,23,21,83,67,43,0.00,40.00,10,4,14,0.00
2013-2-18,39,32,23,27,24,21,89,72,54,0.00,40.00,5,3,8,0.00
2013-2-19,44,30,22,26,22,19,88,72,47,0.00,40.00,9,4,14,0.00
2013-2-20,44,32,20,29,22,18,90,71,40,0.00,40.00,7,5,12,0.00
2013-2-21,41,35,29,27,25,23,84,66,47,0.00,40.00,14,8,23,0.00
2013-2-22,45,40,34,33,28,25,77,61,51,0.00,40.00,28,12,38,0.00
2013-2-23,42,33,24,26,22,19,90,66,38,0.00,40.00,17,8,25,0.00
2013-2-24,48,33,22,24,21,18,87,63,35,0.00,40.00,8,5,13,0.00
2013-2-25,45,37,26,33,25,12,85,63,27,0.00,40.00,19,9,25,0.00
2013-2-26,49,34,23,23,18,7,87,57,18,0.00,40.00,8,4,13,0.00
2013-2-27,50,39,31,33,24,17,70,55,36,0.00,40.00,11,5,17,0.00
2013-2-28,57,48,41,40,35,30,71,60,52,0.00,40.00,14,9,19,0.00